This is the latest recevied weather packets stored in our database for station/object W4OA. If no packets are shown the sender has not sent any weather packets the latest 1 day(s).
| Time | Temp. | Humidity | Pressure | Rain* | Wind** | Luminosity | Snow |
|---|---|---|---|---|---|---|---|
| 1778018999 | 26.11° C | 47% | 1007 hPa | 0 mm | 1.79 m/s, 90° | 0 W/m² | - |
| 1778018701 | 26.11° C | 46% | 1007 hPa | 0 mm | 0.45 m/s, 90° | 0 W/m² | - |
| 1778018398 | 26.11° C | 46% | 1007 hPa | 0 mm | 0.45 m/s, 90° | 0 W/m² | - |
| 1778018098 | 26.11° C | 46% | 1007 hPa | 0 mm | 0.89 m/s, 23° | 0 W/m² | - |
| 1778017799 | 26.11° C | 45% | 1007 hPa | 0 mm | 1.79 m/s, 90° | 0 W/m² | - |
| 1778017499 | 26.67° C | 45% | 1007 hPa | 0 mm | 1.34 m/s, 68° | 0 W/m² | - |
| 1778017198 | 26.67° C | 46% | 1007 hPa | 0 mm | 0 m/s | 0 W/m² | - |
| 1778016898 | 26.11° C | 45% | 1007 hPa | 0 mm | 2.68 m/s, 90° | 0 W/m² | - |
| 1778016598 | 26.11° C | 46% | 1007 hPa | 0 mm | 0.89 m/s, 113° | 0 W/m² | - |
| 1778016300 | 26.11° C | 46% | 1007 hPa | 0 mm | 1.34 m/s, 23° | 0 W/m² | - |
| 1778015998 | 26.67° C | 45% | 1007 hPa | 0 mm | 0.45 m/s, 338° | 0 W/m² | - |
| 1778015698 | 26.67° C | 45% | 1007 hPa | 0 mm | 0.45 m/s, 68° | 0 W/m² | - |
| 1778015398 | 26.11° C | 46% | 1007 hPa | 0 mm | 1.34 m/s, 68° | 0 W/m² | - |
| 1778015098 | 26.11° C | 45% | 1007 hPa | 0 mm | 2.68 m/s, 135° | 0 W/m² | - |
| 1778014799 | 26.11° C | 46% | 1007 hPa | 0 mm | 2.24 m/s, 68° | 0 W/m² | - |
| 1778014501 | 26.67° C | 48% | 1007 hPa | 0 mm | 0 m/s | 0 W/m² | - |
| 1778014198 | 26.11° C | 46% | 1007 hPa | 0 mm | 2.24 m/s, 68° | 0 W/m² | - |
| 1778013899 | 27.22° C | 44% | 1007 hPa | 0 mm | 0.89 m/s, 45° | 0 W/m² | - |
| 1778013599 | 26.67° C | 46% | 1007 hPa | 0 mm | 0.89 m/s, 135° | 0 W/m² | - |
| 1778013299 | 26.67° C | 43% | 1007 hPa | 0 mm | 1.79 m/s, 68° | 0 W/m² | - |
| 1778013000 | 26.67° C | 44% | 1008 hPa | 0 mm | 0.45 m/s, 45° | 0 W/m² | - |
| 1778012698 | 27.22° C | 44% | 1007 hPa | 0 mm | 0 m/s | 0 W/m² | - |
| 1778012399 | 26.11° C | 44% | 1007 hPa | 0 mm | 2.24 m/s, 135° | 0 W/m² | - |
| 1778012098 | 26.67° C | 45% | 1007 hPa | 0 mm | 0.45 m/s, 0° | 0 W/m² | - |
| 1778011799 | 26.67° C | 45% | 1007 hPa | 0 mm | 0.45 m/s, 158° | 0 W/m² | - |
* Rain latest hour (hover to see other rain measurements)
** Current wind speed in m/s (hover to see current wind gust speed)